| time (UTC) | temp C | wind direction | speed KPH | gust KPH | rain 1hr cm | rain 24hr cm | rain mn cm | humidity % | barometer mb |
| 20260507190150 | 17 | 21 | 6.4 | 14.5 | 0.00 | 0.53 | 0.51 | 37 | 1008.3 |
| 20260507180150 | 16 | 355 | 4.8 | 11.3 | 0.00 | 0.66 | 0.51 | 40 | 1008.8 |
| 20260507170150 | 16 | 356 | 1.6 | 11.3 | 0.00 | 0.74 | 0.51 | 39 | 1009.5 |
| 20260507160150 | 15 | 7 | 4.8 | 11.3 | 0.00 | 0.76 | 0.51 | 43 | 1010.1 |
| 20260507150151 | 13 | 309 | 4.8 | 14.5 | 0.00 | 0.76 | 0.51 | 44 | 1010.4 |
| 20260507140150 | 12 | 3 | 3.2 | 12.9 | 0.00 | 0.76 | 0.51 | 52 | 1010.7 |
| 20260507130150 | 11 | 298 | 6.4 | 16.1 | 0.00 | 0.76 | 0.51 | 63 | 1010.7 |
| 20260507110150 | 8 | 347 | 1.6 | 11.3 | 0.00 | 0.76 | 0.51 | 95 | 1010.0 |
| 20260507100151 | 9 | 199 | 0.0 | 1.6 | 0.08 | 0.76 | 0.51 | 95 | 1009.4 |
| 20260507093149 | 9 | 0 | 0.0 | 0.0 | 0.10 | 0.71 | 0.46 | 95 | 1009.1 |
| 20260507083149 | 9 | 348 | 0.0 | 4.8 | 0.08 | 0.61 | 0.36 | 95 | 1008.8 |
| 20260507080150 | 10 | 350 | 1.6 | 6.4 | 0.15 | 0.56 | 0.30 | 95 | 1008.9 |
| 20260507070149 | 11 | 349 | 0.0 | 3.2 | 0.13 | 0.38 | 0.13 | 95 | 1008.9 |
| 20260507063149 | 11 | 355 | 3.2 | 6.4 | 0.03 | 0.28 | 0.03 | 93 | 1008.5 |
| 20260507060149 | 11 | 6 | 1.6 | 6.4 | 0.00 | 0.23 | 0.00 | 91 | 1008.3 |
| 20260507050150 | 12 | 13 | 4.8 | 6.4 | 0.00 | 0.23 | 0.00 | 91 | 1008.7 |
| 20260507040150 | 12 | 0 | 0.0 | 0.0 | 0.00 | 0.23 | 0.00 | 95 | 1008.5 |
| 20260507030150 | 14 | 7 | 4.8 | 8.0 | 0.00 | 0.23 | 0.23 | 96 | 1008.6 |
| 20260507020155 | 14 | 183 | 0.0 | 0.0 | 0.00 | 0.23 | 0.23 | 96 | 1008.1 |
| 20260507000150 | 14 | 198 | 0.0 | 3.2 | 0.00 | 0.23 | 0.23 | 96 | 1007.9 |
| 20260506230150 | 14 | 207 | 1.6 | 4.8 | 0.00 | 0.23 | 0.23 | 96 | 1007.5 |
| 20260506220150 | 14 | 205 | 1.6 | 8.0 | 0.00 | 0.23 | 0.23 | 95 | 1007.4 |
| 20260506210150 | 15 | 205 | 3.2 | 9.7 | 0.03 | 0.23 | 0.23 | 95 | 1007.3 |
| 20260506200150 | 15 | 209 | 3.2 | 9.7 | 0.00 | 0.20 | 0.20 | 95 | 1007.8 |